Florala, AL

7:52 PM CST on February 24, 2017 (GMT -0600)
Florala

Weather History for K0J4 - September, 2012

Change the Weather History Date:

Saturday, September 1, 2012

  Actual Average (KCEW) Record (KCEW)
Temperature  
Mean Temperature 82 °F -  
Max Temperature 91 °F 90 °F 97 °F (2015)
Min Temperature 73 °F 69 °F 62 °F (1992)
Cooling Degree Days 17    
Growing Degree Days 32 (Base 50)    
Moisture  
Dew Point 73 °F    
Average Humidity 81    
Maximum Humidity 100    
Minimum Humidity 48    
Precipitation  
Precipitation 0.00 in - - ()
Sea Level Pressure  
Sea Level Pressure 30.15 in    
Wind  
Wind Speed 1 mph (SW)    
Max Wind Speed 9 mph    
Max Gust Speed -    
Visibility 7 miles    
Events Fog    
Averages and records for this station are not official NWS values.
T = Trace of Precipitation, MM = Missing Value Source: NWS Daily Summary

Daily Weather History Graph

Daily Weather History Graph

Search for Another Location

Airport or City:

Trip Planner

Search our weather history database for the weather conditions in past years. The results will help you decide how hot, cold, wet, or windy it might be!

Date:

Astronomy

Sep. 01, 2012 Rise Set
Actual Time 6:21 AM CDT 7:07 PM CDT
Civil Twilight 5:57 AM CDT 7:32 PM CDT
Nautical Twilight 5:28 AM CDT 8:01 PM CDT
Astronomical Twilight 4:58 AM CDT 8:31 PM CDT
Moon 7:35 PM CDT (9/1) 7:19 AM CDT (9/1)
Length of Visible Light 13h 35m
Length of Day
12h 46m
Full, 99% of the Moon is Illuminated
Sep 1
Full
Sep 8
Last Quarter
Sep 15
New
Sep 22
First Quarter
Sep 29
Full

Hourly Weather History & Observations

Time (CDT) Temp. Heat Index Dew Point Humidity Pressure Visibility Wind Dir Wind Speed Gust Speed Precip Events Conditions
12:58 AM 75.0 °F - 73.0 °F 94% 30.16 in 10.0 mi Calm Calm - N/A   Clear
1:58 AM 75.0 °F - 73.0 °F 94% 30.15 in 9.0 mi Calm Calm - N/A   Clear
2:58 AM 75.9 °F - 73.9 °F 94% 30.14 in 6.0 mi Calm Calm - N/A   Clear
3:58 AM 75.0 °F - 73.0 °F 94% 30.15 in 7.0 mi Calm Calm - N/A   Clear
4:13 AM 73.4 °F - 71.6 °F 94% 30.16 in 8.0 mi Calm Calm - N/A   Partly Cloudy
4:21 AM 75.2 °F - 73.4 °F 94% 30.16 in 8.0 mi Calm Calm - N/A   Mostly Cloudy
4:37 AM 75.2 °F - 73.4 °F 94% 30.16 in 8.0 mi Calm Calm - N/A   Overcast
4:58 AM 75.0 °F - 73.0 °F 94% 30.15 in 4.0 mi Calm Calm - N/A   Overcast
5:58 AM 73.9 °F - 72.0 °F 93% 30.16 in 6.0 mi Calm Calm - N/A   Mostly Cloudy
6:05 AM 73.4 °F - 71.6 °F 94% 30.17 in 1.8 mi Calm Calm - N/A   Overcast
6:25 AM 75.2 °F - 73.4 °F 94% 30.17 in 0.5 mi Calm Calm - N/A Fog Fog
6:55 AM 73.4 °F - 73.4 °F 100% 30.18 in 2.0 mi Calm Calm - N/A   Overcast
6:58 AM 73.9 °F - 73.0 °F 97% 30.17 in 4.0 mi Calm Calm - N/A   Overcast
7:07 AM 75.2 °F - 73.4 °F 94% 30.19 in 1.5 mi Calm Calm - N/A   Overcast
7:12 AM 75.2 °F - 73.4 °F 94% 30.19 in 0.2 mi Calm Calm - N/A Fog Fog
7:58 AM 75.9 °F - 75.0 °F 97% 30.18 in 0.8 mi Calm Calm - N/A   Overcast
8:11 AM 77.0 °F - 75.2 °F 94% 30.19 in 1.8 mi Calm Calm - N/A   Overcast
8:13 AM 77.0 °F - 75.2 °F 94% 30.19 in 3.0 mi Calm Calm - N/A   Mostly Cloudy
8:25 AM 80.6 °F 86.2 °F 75.2 °F 84% 30.20 in 10.0 mi NNE 3.5 mph - N/A   Scattered Clouds
8:58 AM 82.9 °F 90.8 °F 75.9 °F 79% 30.19 in 10.0 mi NNE 4.6 mph - N/A   Clear
9:58 AM 87.1 °F 92.8 °F 71.1 °F 59% 30.20 in 10.0 mi Calm Calm - N/A   Clear
10:58 AM 89.1 °F 96.0 °F 72.0 °F 57% 30.20 in 10.0 mi Variable 5.8 mph - N/A   Clear
11:58 AM 90.0 °F 96.4 °F 71.1 °F 54% 30.18 in 10.0 mi Variable 4.6 mph - N/A   Clear
12:58 PM 91.0 °F 96.6 °F 70.0 °F 50% 30.16 in 10.0 mi SSW 6.9 mph - N/A   Scattered Clouds
1:58 PM 91.9 °F 97.4 °F 70.0 °F 48% 30.14 in 10.0 mi South 6.9 mph - N/A   Mostly Cloudy
2:58 PM 91.9 °F 97.4 °F 70.0 °F 48% 30.10 in 10.0 mi SW 8.1 mph - N/A   Partly Cloudy
3:58 PM 91.9 °F 97.4 °F 70.0 °F 48% 30.07 in 10.0 mi SSW 5.8 mph - N/A   Clear
4:58 PM 91.9 °F 97.4 °F 70.0 °F 48% 30.08 in 10.0 mi SW 4.6 mph - N/A   Clear
5:58 PM 89.1 °F 99.1 °F 75.0 °F 63% 30.09 in 10.0 mi SSW 9.2 mph - N/A   Partly Cloudy
6:58 PM 86.0 °F 95.1 °F 75.0 °F 70% 30.09 in 10.0 mi SSW 6.9 mph - N/A   Clear
7:58 PM 82.9 °F 90.2 °F 75.0 °F 77% 30.09 in 10.0 mi SSW 4.6 mph - N/A   Clear
8:58 PM 80.1 °F 85.1 °F 75.0 °F 85% 30.11 in 10.0 mi SSW 4.6 mph - N/A   Clear
9:58 PM 80.1 °F 84.5 °F 73.9 °F 81% 30.11 in 10.0 mi SW 4.6 mph - N/A   Clear
10:58 PM 79.0 °F - 73.9 °F 84% 30.11 in 10.0 mi SW 3.5 mph - N/A   Clear
11:58 PM 78.1 °F - 73.9 °F 87% 30.11 in 10.0 mi SW 3.5 mph - N/A   Clear